Location: Feydey
(46.3431°N, 7.0106°E)
Time: 15:31:06
(UTC+00:00)

IGS 5A - Pass Details

Date: 20 June 2021
Orbit: 583 x 587 km, 97.6° (Epoch: 17 July)

Event Time Altitude Azimuth Distance (km) Brightness Sun altitude
Exits shadow 20:02:27 - 165° (SSE) 2,576 6.2 -5.5°
Reaches altitude 10° 20:04:03 10° 165° (SSE) 1,908 5.6 -5.7°
Maximum altitude 20:08:12 88° 80° (E) 595 3.5 -6.2°
Drops below altitude 10° 20:12:23 10° 348° (NNW) 1,924 7.1 -6.7°
Sets 20:14:33 0° 348° (NNW) 2,830 8.0 -7.0°
